Location: Unspecified
(0.0000°N, 0.0000°E)
Time: 13:09:13
(UTC+00:00)

ISS - Pass Details

Date: 20 June 2021
Orbit: 417 x 422 km, 51.6° (Epoch: 18 June)

Event Time Altitude Azimuth Distance (km) Brightness Sun altitude
Exits shadow 04:24:45 24° 349° (NNW) 911 -2.0 -22.1°
Drops below altitude 10° 04:26:31 10° 11° (NNE) 1,487 -0.5 -21.7°
Sets 04:28:43 0° 21° (NNE) 2,345 0.8 -21.2°
